Temperature
14 12 11 10 9 8 8 7 7 6 6 5 4 4 3 2 1 1 0 -0 -1 -2 -2 -3 -4 -5 -5 -7 -8 -8 -9 -9 -10 -10 -10 -10 -9 -9 -9 -9 -9 -9 -9
14 13 11 10 9 9 8 8 7 7 6 5 4 4 3 2 2 1 0 -1 -1 -2 -3 -3 -4 -5 -6 -7 -8 -9 -9 -10 -10 -11 -11 -11 -11 -10 -9 -9 -10 -10 -10
15 14 13 12 11 10 9 9 8 7 6 5 4 3 3 2 2 1 0 -1 -1 -2 -3 -4 -4 -5 -7 -8 -9 -9 -10 -10 -11 -11 -11 -12 -11 -11 -11 -10 -10 -10 -10
16 15 14 13 12 12 11 9 8 7 6 5 4 3 3 2 1 1 0 -1 -1 -2 -3 -4 -5 -6 -7 -8 -9 -9 -10 -11 -11 -11 -11 -11 -12 -12 -12 -11 -11 -11 -11
17 16 16 15 14 13 11 10 9 7 6 5 4 3 3 2 1 1 -0 -1 -2 -2 -3 -4 -5 -6 -7 -8 -9 -10 -10 -11 -11 -11 -11 -11 -11 -12 -12 -12 -12 -11 -11
18 17 16 15 14 13 11 10 9 7 6 5 4 3 3 2 1 1 -0 -1 -2 -3 -3 -4 -5 -6 -7 -8 -9 -10 -10 -11 -11 -11 -11 -11 -11 -12 -12 -13 -13 -12 -11
19 17 16 15 14 13 12 11 9 8 6 5 4 3 3 2 1 0 -0 -1 -2 -2 -3 -4 -5 -6 -7 -8 -9 -9 -10 -11 -11 -11 -11 -11 -11 -11 -12 -13 -13 -13 -12
19 18 17 16 15 14 13 11 10 8 7 5 4 3 2 2 1 0 -1 -1 -2 -3 -3 -4 -5 -6 -7 -8 -9 -9 -10 -10 -10 -11 -11 -11 -11 -11 -12 -12 -13 -13 -13
19 18 17 16 15 14 13 12 10 9 7 5 4 3 2 2 1 -0 -1 -1 -2 -3 -4 -5 -5 -6 -7 -8 -9 -9 -9 -10 -10 -10 -10 -10 -10 -11 -11 -12 -12 -13 -13
19 18 17 17 16 14 13 11 10 8 7 5 4 3 2 2 1 -0 -1 -2 -2 -3 -4 -5 -6 -6 -7 -8 -8 -9 -9 -9 -9 -9 -9 -10 -10 -11 -11 -11 -12 -12 -13
19 19 18 17 16 14 13 11 9 8 6 5 3 3 2 1 0 -0 -1 -2 -2 -3 -4 -5 -5 -6 -7 -8 -8 -8 -9 -9 -9 -9 -9 -10 -10 -11 -11 -11 -12 -12 -12
19 19 18 17 15 14 13 11 10 8 6 5 3 3 2 1 0 -0 -1 -2 -3 -3 -4 -5 -5 -6 -7 -8 -8 -8 -8 -9 -9 -9 -9 -10 -10 -11 -11 -11 -11 -12 -12
19 18 17 17 16 15 13 12 10 8 6 4 3 2 2 1 0 -1 -1 -2 -3 -3 -4 -5 -5 -6 -7 -7 -8 -8 -8 -8 -8 -9 -9 -10 -10 -11 -11 -11 -11 -11 -11
18 18 17 17 16 15 13 12 10 8 6 4 3 2 2 1 0 -1 -2 -2 -3 -3 -4 -4 -5 -6 -6 -7 -7 -8 -8 -8 -8 -9 -9 -10 -10 -11 -11 -11 -11 -11 -11
18 18 17 17 16 15 14 12 10 8 6 4 3 2 2 1 -0 -1 -2 -2 -3 -3 -4 -4 -5 -5 -6 -7 -7 -8 -8 -8 -8 -9 -9 -10 -11 -11 -11 -11 -11 -11 -11
17 17 17 17 16 15 14 13 11 9 7 5 3 2 2 1 -0 -1 -2 -2 -3 -3 -4 -4 -5 -5 -6 -6 -8 -8 -8 -8 -8 -9 -9 -10 -10 -11 -11 -11 -11 -11 -11
17 17 17 17 16 15 14 13 12 10 7 5 4 2 1 0 -0 -1 -2 -2 -3 -3 -4 -4 -4 -5 -5 -6 -8 -8 -8 -8 -8 -9 -9 -10 -10 -11 -11 -10 -10 -11 -11
17 17 17 16 16 15 14 13 11 9 7 5 4 3 1 1 -0 -1 -2 -2 -3 -3 -3 -4 -4 -5 -5 -6 -8 -8 -8 -8 -9 -9 -9 -10 -10 -10 -10 -10 -10 -11 -11
17 16 16 15 15 14 13 12 11 9 7 6 4 3 2 1 -0 -1 -1 -2 -3 -3 -3 -4 -4 -5 -5 -6 -7 -8 -9 -9 -9 -9 -9 -10 -10 -10 -9 -10 -11 -11 -11
16 15 15 14 14 14 13 12 11 9 8 7 5 3 2 1 -0 -1 -1 -2 -3 -3 -3 -4 -4 -5 -5 -6 -7 -9 -9 -9 -9 -9 -9 -10 -10 -10 -10 -10 -11 -11 -11
15 14 14 14 14 13 12 11 10 10 9 7 5 3 2 1 -0 -1 -2 -2 -3 -3 -3 -4 -4 -5 -5 -6 -6 -8 -9 -9 -9 -9 -10 -10 -10 -10 -10 -11 -11 -11 -11
14 13 13 13 13 12 11 11 10 10 8 6 5 3 2 1 -0 -1 -2 -2 -3 -3 -3 -4 -4 -5 -5 -6 -7 -8 -9 -9 -9 -10 -10 -10 -10 -10 -11 -11 -11 -12 -12
13 12 12 12 12 12 11 10 10 8 7 5 4 3 2 0 -1 -1 -2 -2 -3 -3 -3 -4 -4 -5 -5 -6 -7 -8 -9 -9 -10 -10 -10 -10 -10 -10 -11 -11 -12 -12 -12
11 11 11 11 11 11 10 10 9 7 6 5 4 3 1 0 -1 -1 -2 -2 -2 -3 -3 -4 -4 -5 -5 -6 -7 -8 -9 -9 -9 -9 -9 -10 -10 -10 -10 -11 -11 -12 -12
10 10 10 10 10 10 10 9 8 6 5 4 3 2 1 0 -1 -1 -1 -2 -2 -3 -3 -4 -4 -5 -5 -6 -8 -9 -9 -10 -10 -9 -9 -9 -9 -10 -10 -11 -11 -12 -12
9 9 9 9 10 9 9 8 7 6 4 3 2 1 0 -0 -1 -1 -2 -2 -3 -3 -3 -4 -4 -5 -5 -6 -8 -9 -9 -9 -9 -9 -9 -9 -10 -10 -11 -11 -11 -11 -12
Wind_Speed
17 14 15 15 15 16 16 17 14 12 9 5 4 3 3 3 4 8 10 10 9 8 8 7 8 7 5 5 6 5 6 5 5 6 10 10 9 9 8 11 13 17 21
13 14 14 15 18 20 19 18 17 15 12 7 4 3 4 3 5 7 7 9 9 8 7 7 7 7 5 5 6 5 4 5 5 5 10 9 10 7 12 9 10 11 15
18 16 17 19 19 21 22 20 18 16 13 9 5 3 3 1 2 3 4 8 8 8 8 8 8 8 5 5 6 6 6 6 5 4 5 8 10 14 10 12 11 9 10
16 15 17 18 21 22 19 18 17 15 13 11 9 8 6 6 6 4 4 7 8 8 8 9 9 8 7 5 6 6 6 6 8 6 5 7 8 10 12 11 9 11 12
16 16 18 20 20 18 18 16 16 15 14 13 12 9 7 6 4 4 5 5 7 8 9 10 9 9 8 8 8 7 7 6 7 7 6 7 7 7 8 15 17 15 10
14 15 13 12 13 13 15 15 17 16 15 14 12 11 10 9 7 6 6 5 4 6 9 10 10 11 10 10 9 8 8 8 8 8 7 8 7 9 8 12 16 17 15
12 12 12 14 15 17 18 17 18 16 15 15 13 12 11 10 10 8 7 6 5 4 7 9 10 10 12 13 12 8 8 8 9 9 8 8 9 9 10 12 15 17 16
11 13 14 15 16 18 19 19 20 16 17 16 14 11 11 8 7 9 7 7 6 6 9 10 11 12 13 13 11 7 9 8 9 11 11 9 10 9 10 10 12 16 16
12 13 12 13 15 18 21 22 21 17 17 16 13 11 11 10 9 9 8 6 6 7 10 10 10 11 12 12 10 8 9 9 10 11 12 11 11 10 10 10 10 11 17
11 11 11 14 15 16 17 17 18 18 14 15 14 12 11 10 9 8 9 8 7 9 8 8 8 9 10 10 8 9 10 10 11 11 12 13 12 11 11 11 11 11 14
14 14 13 13 12 12 14 16 16 15 14 15 13 11 11 10 9 8 9 8 7 7 7 7 8 8 9 8 9 11 10 12 13 13 14 16 15 13 12 11 11 12 12
11 11 11 10 12 15 15 17 17 16 16 15 13 12 10 9 9 9 9 8 8 7 7 7 8 9 9 9 10 12 13 12 15 16 16 17 15 15 13 12 12 12 13
11 9 9 12 14 16 16 17 18 17 15 14 13 12 11 11 11 10 9 8 8 8 7 7 8 9 10 11 11 12 13 15 16 17 16 17 15 15 13 13 13 13 14
11 10 10 12 14 15 16 17 17 16 15 14 14 14 14 13 11 9 8 8 8 7 8 8 9 10 10 11 12 13 14 15 16 15 14 14 14 14 14 13 14 14 13
11 12 13 13 13 14 15 16 16 16 16 15 15 15 13 11 9 9 9 8 8 8 8 8 9 10 9 10 12 13 13 12 11 10 11 12 15 19 16 13 11 11 11
12 13 13 13 14 16 17 17 17 17 16 17 16 13 11 11 11 10 9 8 8 7 7 8 9 10 10 17 22 18 9 8 8 9 9 11 13 18 22 24 23 20 13
13 13 13 14 16 17 17 19 18 16 17 17 15 14 13 13 12 11 9 9 8 7 8 9 9 10 12 19 21 21 11 6 8 9 9 10 12 17 11 19 23 18 21
12 12 11 12 13 13 14 14 14 16 18 17 15 14 14 13 11 11 11 10 7 7 7 9 9 9 12 17 19 19 8 6 8 8 9 10 12 15 17 14 9 10 12
11 11 10 10 9 11 12 13 15 16 17 18 17 16 15 14 13 13 12 9 7 8 8 8 8 8 10 15 17 17 5 7 8 8 9 11 11 22 25 11 9 11 11
9 9 8 7 8 9 11 14 16 18 20 20 18 16 16 15 15 14 12 9 8 8 8 8 7 7 8 13 15 15 5 7 7 7 8 15 18 23 22 10 9 12 11
12 10 9 9 10 9 12 16 17 21 20 15 15 16 16 16 14 12 10 9 8 7 7 7 7 7 8 10 13 14 6 6 6 7 7 10 21 22 21 18 10 16 15
13 11 10 12 9 10 14 17 20 18 13 14 16 17 16 14 13 12 11 9 8 8 7 6 6 6 6 8 11 14 13 11 5 7 8 10 20 20 20 16 18 22 18
12 10 10 12 10 11 15 19 18 13 14 16 17 15 15 14 12 13 12 9 8 7 6 6 6 5 5 6 12 13 14 14 8 6 13 16 18 17 13 17 21 17 11
12 10 10 12 13 12 16 19 13 13 16 17 16 15 15 14 13 11 10 9 9 8 7 7 6 5 4 5 6 6 7 10 9 6 9 14 15 14 14 14 12 10 10
11 10 10 13 16 12 14 15 12 14 16 16 16 15 15 14 14 13 11 11 10 9 8 7 6 5 5 7 10 6 4 5 5 4 4 5 7 8 8 9 9 9 10
11 11 11 13 15 12 13 13 14 16 17 15 15 13 12 12 12 11 10 15 13 15 16 14 10 8 9 10 10 10 10 10 9 5 4 6 8 9 10 10 10 9 10
Wind_Direction
227 213 206 196 187 185 184 183 180 178 167 159 165 177 203 215 238 250 245 234 237 250 262 273 285 289 279 279 289 294 299 296 295 305 312 303 288 284 286 286 290 292 293
227 215 204 195 192 190 189 187 186 182 180 175 166 167 169 194 225 237 230 230 240 254 263 266 272 279 278 285 291 293 289 294 311 305 316 312 307 302 311 294 292 291 294
228 217 207 201 197 196 193 192 188 184 182 171 151 140 136 180 223 223 227 236 248 261 265 272 273 275 267 270 279 282 278 292 293 268 279 304 307 315 302 303 298 291 293
228 218 210 205 203 201 193 189 185 182 179 170 170 169 182 199 213 211 221 244 256 259 265 271 273 271 266 260 273 290 274 280 294 292 257 260 282 300 307 307 298 296 299
225 220 213 210 206 195 189 186 181 181 178 177 177 178 192 202 210 218 235 245 252 255 264 270 269 264 262 263 267 273 270 264 273 283 284 284 282 269 286 303 308 307 299
225 224 216 203 195 184 183 181 181 183 181 181 181 185 192 199 208 221 233 241 242 252 260 266 262 261 262 263 265 262 262 262 266 273 274 278 279 288 285 293 300 304 304
220 218 207 197 191 185 186 185 185 186 185 185 188 192 194 195 206 215 224 230 237 243 250 258 258 260 262 265 265 259 259 259 263 266 271 270 269 273 277 284 293 298 300
219 216 208 199 194 190 188 187 190 189 187 190 195 194 192 195 206 211 212 220 228 238 249 253 255 258 264 270 267 263 262 265 262 272 270 272 273 269 267 273 285 296 299
224 219 209 199 194 192 192 191 191 190 191 193 193 194 193 196 203 208 212 221 229 244 248 248 252 260 264 264 264 262 263 266 268 269 270 270 272 268 265 264 265 278 294
234 226 214 206 200 197 194 192 192 193 190 191 194 199 197 199 200 203 215 222 231 243 249 251 253 258 262 263 259 264 266 267 271 272 270 271 272 270 267 264 263 262 272
231 227 220 208 197 189 190 193 194 193 191 193 194 193 194 196 197 206 217 224 231 237 241 247 252 257 261 260 262 266 269 269 274 276 274 274 274 274 271 266 265 266 267
236 228 214 195 192 195 195 197 197 197 197 193 192 196 192 191 199 211 219 222 230 235 241 248 256 262 266 264 264 271 277 273 276 278 278 278 279 276 274 268 266 269 269
248 232 208 202 204 203 201 201 200 200 195 190 192 194 196 198 206 212 217 220 227 236 245 251 259 264 268 270 269 268 272 273 274 277 278 278 277 276 273 267 268 271 274
248 233 222 217 212 207 204 203 203 198 193 191 193 199 202 203 206 207 211 217 224 237 250 256 261 265 268 271 274 273 271 272 275 276 273 273 274 274 270 270 267 270 274
247 234 230 225 217 211 209 206 203 198 194 193 198 204 201 197 198 204 209 216 226 242 250 261 268 271 273 272 269 269 270 274 281 278 273 275 287 289 287 283 277 276 279
253 244 236 228 221 216 212 207 204 199 193 197 202 199 192 193 200 205 210 218 230 242 253 260 268 275 279 290 297 298 285 285 284 284 283 287 291 295 300 300 299 296 296
259 253 242 233 228 219 211 208 204 194 194 199 199 194 192 197 202 207 211 221 230 240 253 261 266 271 281 296 300 304 308 288 284 285 289 299 301 307 292 291 294 294 296
263 261 253 242 232 219 210 205 195 194 198 200 198 194 192 197 199 204 216 223 226 236 250 261 266 271 283 299 305 308 316 285 281 281 282 286 288 293 293 286 278 267 275
263 266 261 250 235 215 201 192 196 197 201 203 200 195 191 193 196 208 218 221 223 236 245 255 262 268 283 301 304 310 293 287 283 282 287 297 292 301 313 321 300 294 290
279 279 279 259 239 215 186 192 201 202 208 206 201 194 191 193 200 208 213 214 219 233 245 255 256 264 274 297 306 310 290 294 291 289 294 313 316 320 332 331 315 309 306
287 283 272 256 243 205 187 203 208 214 212 200 192 190 192 195 199 202 205 210 218 229 239 253 259 264 275 297 307 309 308 299 303 309 310 312 322 333 338 336 322 319 332
288 282 269 262 245 200 197 212 220 218 198 189 191 192 191 191 194 196 202 206 213 225 239 248 260 254 267 291 300 311 319 323 306 308 308 314 330 339 339 336 333 338 338
282 278 265 267 254 213 206 222 227 202 187 190 194 193 190 190 188 192 198 201 207 219 232 238 252 256 255 279 300 311 319 324 322 309 324 333 338 340 335 333 340 342 331
284 282 274 267 264 234 220 229 222 189 189 195 195 192 190 190 191 193 196 200 204 212 222 230 240 249 258 271 279 276 291 310 316 318 327 336 339 339 336 337 334 330 328
286 282 272 268 268 253 232 228 209 189 195 197 195 193 193 190 192 197 201 202 206 205 209 217 221 229 247 265 289 303 292 296 308 331 328 331 335 337 333 331 331 331 333
292 291 282 275 274 264 246 227 205 196 196 198 197 194 191 190 191 193 202 216 213 223 228 224 218 227 243 274 296 308 315 323 337 354 332 334 334 333 332 332 331 332 337
Height
1545 1548 1549 1550 1551 1552 1552 1552 1553 1554 1555 1556 1556 1555 1553 1551 1549 1546 1544 1542 1539 1536 1533 1530 1526 1522 1518 1514 1510 1506 1503 1499 1496 1491 1485 1481 1478 1474 1469 1465 1460 1455 1450
1538 1540 1542 1543 1543 1544 1544 1545 1546 1547 1549 1550 1551 1550 1548 1546 1544 1542 1540 1537 1535 1532 1529 1525 1521 1518 1514 1510 1507 1503 1498 1495 1493 1489 1482 1476 1472 1468 1464 1459 1453 1449 1444
1530 1532 1534 1535 1536 1536 1536 1537 1539 1540 1542 1544 1545 1544 1543 1541 1539 1537 1535 1533 1530 1527 1524 1520 1517 1513 1510 1506 1503 1499 1495 1491 1488 1487 1483 1476 1467 1462 1456 1452 1447 1443 1438
1524 1525 1527 1527 1527 1527 1529 1530 1532 1534 1536 1537 1538 1538 1537 1536 1534 1532 1530 1528 1526 1523 1519 1516 1512 1509 1505 1502 1498 1495 1491 1487 1483 1481 1478 1475 1469 1462 1451 1445 1440 1436 1432
1517 1518 1519 1519 1520 1522 1522 1524 1525 1527 1529 1530 1531 1531 1531 1530 1528 1526 1525 1523 1521 1518 1515 1511 1508 1504 1500 1497 1493 1490 1486 1483 1479 1475 1471 1468 1464 1459 1453 1441 1433 1427 1423
1511 1512 1513 1514 1514 1515 1515 1516 1518 1519 1521 1523 1524 1524 1524 1524 1522 1521 1519 1518 1515 1513 1509 1506 1502 1499 1495 1492 1488 1484 1480 1477 1473 1470 1466 1462 1457 1452 1447 1439 1430 1422 1415
1504 1505 1506 1506 1506 1506 1507 1508 1510 1511 1513 1515 1516 1517 1518 1517 1516 1515 1513 1512 1510 1507 1504 1501 1497 1493 1490 1486 1482 1478 1474 1471 1467 1463 1459 1455 1451 1447 1442 1435 1427 1418 1410
1498 1499 1499 1499 1499 1499 1500 1500 1501 1503 1505 1507 1509 1511 1511 1510 1509 1508 1507 1506 1504 1501 1498 1495 1491 1488 1484 1480 1476 1472 1468 1464 1460 1456 1452 1448 1444 1440 1435 1430 1423 1413 1404
1492 1492 1493 1493 1493 1493 1493 1493 1494 1496 1498 1500 1502 1503 1504 1503 1503 1502 1501 1500 1498 1495 1492 1489 1485 1482 1478 1475 1471 1466 1462 1458 1453 1449 1445 1441 1436 1432 1428 1423 1418 1413 1402
1486 1486 1486 1486 1486 1486 1487 1487 1487 1489 1491 1493 1495 1496 1497 1496 1496 1495 1495 1494 1492 1489 1487 1483 1480 1476 1473 1469 1465 1460 1456 1451 1447 1443 1438 1433 1428 1423 1419 1414 1410 1406 1400
1480 1480 1480 1480 1480 1480 1480 1480 1480 1482 1483 1485 1487 1489 1490 1490 1489 1489 1489 1488 1486 1484 1481 1477 1474 1470 1466 1463 1458 1454 1450 1445 1441 1436 1431 1425 1420 1415 1410 1406 1402 1398 1393
1476 1475 1475 1474 1473 1472 1472 1472 1472 1473 1475 1478 1480 1481 1482 1483 1482 1483 1483 1482 1480 1478 1475 1472 1468 1464 1460 1456 1452 1448 1443 1439 1434 1429 1423 1417 1412 1407 1402 1398 1394 1390 1385
1471 1470 1469 1467 1466 1465 1464 1464 1464 1465 1468 1470 1472 1473 1474 1475 1476 1476 1476 1476 1474 1472 1469 1466 1462 1458 1454 1450 1446 1441 1437 1432 1427 1422 1415 1410 1404 1399 1395 1391 1386 1382 1377
1465 1464 1462 1461 1459 1458 1457 1456 1456 1458 1460 1461 1463 1465 1467 1468 1469 1470 1470 1469 1468 1466 1463 1460 1457 1453 1448 1443 1439 1435 1431 1426 1421 1415 1409 1403 1398 1392 1387 1383 1379 1375 1370
1458 1457 1456 1454 1452 1451 1449 1448 1448 1450 1451 1453 1454 1456 1460 1461 1462 1463 1463 1463 1462 1460 1458 1454 1451 1447 1442 1437 1433 1429 1425 1420 1415 1409 1404 1398 1392 1387 1382 1378 1373 1368 1363
1452 1451 1450 1448 1446 1444 1442 1441 1440 1441 1442 1443 1445 1449 1452 1454 1455 1456 1457 1456 1455 1454 1451 1448 1445 1441 1437 1432 1427 1425 1421 1416 1410 1404 1398 1392 1386 1380 1375 1371 1367 1363 1358
1448 1446 1445 1442 1440 1438 1436 1433 1432 1433 1433 1435 1437 1441 1444 1446 1448 1449 1450 1449 1449 1448 1445 1443 1439 1435 1431 1426 1422 1419 1416 1410 1405 1399 1392 1386 1380 1375 1369 1364 1359 1355 1351
1444 1442 1440 1438 1435 1432 1429 1427 1425 1424 1424 1425 1428 1432 1435 1438 1440 1442 1442 1443 1443 1441 1440 1437 1434 1429 1425 1421 1417 1414 1410 1405 1400 1394 1388 1382 1375 1370 1364 1357 1352 1348 1343
1442 1439 1436 1433 1429 1425 1422 1419 1417 1415 1415 1415 1418 1422 1426 1429 1432 1434 1435 1436 1436 1435 1433 1431 1428 1424 1420 1416 1411 1409 1404 1400 1395 1390 1384 1378 1372 1366 1360 1354 1347 1341 1336
1438 1435 1431 1427 1423 1419 1415 1411 1408 1406 1404 1406 1409 1414 1418 1421 1423 1426 1428 1429 1429 1428 1427 1425 1423 1419 1415 1411 1407 1404 1400 1395 1390 1385 1380 1374 1369 1363 1357 1350 1343 1336 1330
1433 1428 1424 1419 1415 1412 1407 1402 1399 1396 1397 1399 1402 1405 1408 1412 1415 1418 1420 1422 1422 1422 1421 1420 1417 1414 1410 1406 1402 1399 1396 1391 1386 1381 1376 1370 1366 1360 1354 1347 1341 1334 1327
1425 1421 1415 1411 1407 1403 1398 1393 1389 1389 1390 1390 1391 1394 1398 1403 1406 1410 1412 1414 1415 1415 1415 1414 1412 1409 1406 1401 1397 1394 1392 1388 1383 1377 1372 1367 1363 1357 1350 1344 1338 1331 1323
1416 1412 1407 1402 1398 1394 1389 1384 1381 1381 1380 1380 1382 1386 1390 1394 1398 1401 1404 1406 1408 1408 1409 1408 1407 1405 1401 1397 1394 1390 1387 1384 1380 1375 1370 1365 1360 1354 1348 1342 1336 1328 1320
1408 1404 1399 1393 1389 1385 1380 1376 1374 1372 1371 1371 1373 1377 1380 1385 1389 1393 1397 1399 1400 1401 1402 1402 1401 1399 1397 1393 1390 1386 1383 1380 1376 1372 1367 1363 1358 1353 1347 1340 1333 1326 1320
1400 1396 1390 1384 1380 1376 1371 1367 1365 1363 1362 1362 1364 1367 1371 1376 1380 1384 1388 1391 1394 1395 1396 1396 1396 1394 1392 1389 1386 1384 1380 1377 1373 1369 1365 1361 1355 1350 1344 1338 1332 1326 1319
1392 1387 1382 1376 1371 1367 1362 1358 1355 1353 1352 1352 1355 1358 1362 1367 1372 1377 1381 1384 1387 1389 1390 1390 1390 1389 1387 1385 1382 1380 1377 1374 1371 1367 1363 1359 1354 1348 1343 1337 1331 1325 1319